Location: Calvatone
(45.1167°N, 10.4333°E)
Time: 12:14:19
(UTC+00:00)

PCSat - Pass Details

Date: 07 December 2023
Orbit: 784 x 791 km, 67.0° (Epoch: 27 February)

Event Time Altitude Azimuth Distance (km) Brightness Sun altitude
Exits shadow 04:45:09 23° 335° (NNW) 1,636 10.9 -19.9°
Drops below altitude 10° 04:48:32 10° 12° (NNE) 2,360 12.0 -19.4°
Sets 04:51:25 0° 26° (NNE) 3,293 12.9 -18.9°
